This demonstration page uses our WeatherBlox Daily Observations layout. Learn more.

Left ArrowRight Arrow

39.51506, -84.39828

Hourly Observations for May 18, 2022

Temp ( °F °C ) Dew Point ( °F °C ) Humidity (%) Winds ( mph kmh ) Pressure ( in mb ) Visibility ( mi km ) Precip ( " mm )
12:15 am 00:15 Cloudy 59 15.2 51 10.8 75 75 N 3 6 30.03 1017 10 16 0.00 0.00
12:35 am 00:35 Partly Cloudy 60 15.4 49 9.7 69 69 Calm 30.03 1017 10 16 0.00 0.00
12:55 am 00:55 Clear 58 14.2 52 11.3 83 83 Calm 30.03 1017 10 16 0.00 0.00
1:15 am 01:15 Clear 56 13.1 51 10.8 86 86 NNW 3 6 30.03 1017 10 16 0.00 0.00
1:35 am 01:35 Partly Cloudy 56 13.1 51 10.7 86 86 N 5 7 30.02 1017 10 16 0.00 0.00
1:55 am 01:55 Mostly Cloudy 55 13 53 11.4 90 90 NNW 3 6 30.02 1017 10 16 0.00 0.00
2:15 am 02:15 Cloudy 55 12.9 53 11.8 93 93 WNW 3 6 30.02 1017 10 16 0.00 0.00
2:35 am 02:35 Cloudy 56 13.6 55 12.5 93 93 Calm 30.02 1017 10 16 0.00 0.00
2:55 am 02:55 Cloudy 57 14 53 11.9 87 87 N 3 6 30.01 1016 10 16 0.00 0.00
3:15 am 03:15 Partly Cloudy 57 13.9 52 11 83 83 N 3 6 30.01 1016 10 16 0.00 0.00
3:35 am 03:35 Clear 55 12.8 53 11.7 93 93 Calm 29.99 1016 10 16 0.00 0.00
3:55 am 03:55 Clear 55 12.9 52 11 88 88 Calm 29.99 1016 10 16 0.00 0.00
4:15 am 04:15 Clear 54 12.2 52 11.1 93 93 NNW 3 6 29.99 1016 10 16 0.00 0.00
4:35 am 04:35 Clear 54 12 52 11 94 94 NW 3 6 30.00 1016 10 16 0.00 0.00
4:55 am 04:55 Clear 53 11.9 52 11 94 94 Calm 29.99 1016 10 16 0.00 0.00
5:15 am 05:15 Partly Cloudy 53 11.7 52 11 96 96 Calm 30.00 1016 10 16 0.00 0.00
5:35 am 05:35 Clear 55 12.5 53 11.7 95 95 N 5 7 29.99 1016 10 16 0.00 0.00
5:55 am 05:55 Clear 55 12.9 53 11.5 91 91 N 3 6 29.99 1016 10 16 0.00 0.00
6:15 am 06:15 Clear 56 13.1 52 11 87 87 Calm 30.00 1016 10 16 0.00 0.00
6:35 am 06:35 Partly Cloudy 56 13.3 54 12.2 93 93 NNE 3 6 30.00 1016 10 16 0.00 0.00
6:55 am 06:55 Mostly Cloudy 57 13.7 54 12.2 91 91 N 5 7 30.01 1016 10 16 0.00 0.00
7:15 am 07:15 Mostly Cloudy 57 13.9 53 11.9 88 88 NNW 5 7 30.00 1016 10 16 0.00 0.00
7:35 am 07:35 Cloudy with Light Rain 58 14.5 52 11.2 81 81 Calm 30.01 1016 10 16 0.00 0.00
7:55 am 07:55 Cloudy with Light Rain 58 14.5 56 13.3 93 93 Calm 30.01 1016 10 16 0.00 0.00
8:15 am 08:15 Cloudy with Light Rain 58 14.5 56 13.3 93 93 Calm 30.00 1016 10 16 0.00 0.00
8:35 am 08:35 Cloudy with Light Rain 59 15.1 57 13.7 91 91 Calm 29.99 1015 10 16 0.00 0.00
8:55 am 08:55 Cloudy with Light Rain 61 16.3 51 10.4 68 68 ESE 3 6 29.97 1015 10 16 0.00 0.00
9:15 am 09:15 Cloudy 62 16.4 51 10.8 70 70 Calm 29.96 1015 10 16 0.00 0.00
9:35 am 09:35 Cloudy 62 16.6 51 10.3 67 67 Calm 29.97 1015 10 16 0.00 0.00
9:55 am 09:55 Cloudy 62 16.9 51 10.7 67 67 Calm 29.96 1015 10 16 0.00 0.00
10:15 am 10:15 Cloudy 63 17 51 10.5 66 66 Calm 29.96 1015 10 16 0.00 0.00
10:35 am 10:35 Cloudy 63 17.3 52 11.1 67 67 SSE 3 6 29.97 1015 10 16 0.00 0.00
10:55 am 10:55 Cloudy with Light Rain 63 17.3 53 11.7 70 70 SE 5 7 29.96 1015 7 11 0.00 0.00
11:15 am 11:15 Cloudy 64 17.8 54 12.3 70 70 SSE 7 11 29.96 1015 10 16 0.00 0.00
11:35 am 11:35 Cloudy 65 18.5 56 13.1 71 71 S 7 11 29.96 1014 10 16 0.00 0.00
11:55 am 11:55 Cloudy 67 19.5 56 13.3 68 68 S 6 9 29.95 1014 10 16 0.00 0.00
12:15 pm 12:15 Cloudy 69 20.7 57 13.9 65 65 S 8 13 29.93 1014 10 16 0.00 0.00
12:35 pm 12:35 Cloudy 70 20.9 55 13 61 61 SSW 7 11 29.91 1013 10 16 0.00 0.00
12:55 pm 12:55 Mostly Cloudy 72 22 57 13.9 60 60 S 10 17 29.90 1013 10 16 0.00 0.00
1:15 pm 13:15 Partly Cloudy 73 22.7 57 14 58 58 SSW 9 15 29.89 1012 10 16 0.00 0.00
1:35 pm 13:35 Partly Cloudy 73 22.6 57 13.9 58 58 SW 9 15 29.88 1012 10 16 0.00 0.00
1:55 pm 13:55 Mostly Cloudy with Light Rain 72 22.1 57 13.7 59 59 SSW 12 19 29.86 1011 10 16 0.00 0.00
2:15 pm 14:15 Mostly Cloudy 73 22.6 56 13.3 56 56 SSE 7 11 29.81 1009 10 16 0.00 0.00
2:35 pm 14:35 Cloudy 73 22.8 54 12.1 51 51 Calm 29.78 1008 10 16 0.00 0.00
2:55 pm 14:55 Mostly Cloudy 73 22.9 55 12.5 52 52 ESE 3 6 29.76 1008 10 16 0.00 0.00
3:15 pm 15:15 Mostly Cloudy 72 22.4 58 14.6 61 61 WNW 3 6 29.78 1008 10 16 0.00 0.00
3:35 pm 15:35 Mostly Cloudy 72 22.1 58 14.4 62 62 W 6 9 29.78 1008 10 16 0.00 0.00
3:55 pm 15:55 Cloudy 73 22.6 57 14 58 58 WSW 5 7 29.78 1008 10 16 0.00 0.00
4:15 pm 16:15 Cloudy with Light Rain 71 21.8 59 15.2 66 66 WSW 6 9 29.79 1009 10 16 0.00 0.00
4:35 pm 16:35 Cloudy with Light Rain 68 20.2 62 16.8 81 81 W 5 7 29.80 1009 10 16 0.01 0.25
4:55 pm 16:55 Cloudy with Light Rain 66 19.1 63 17.2 89 89 W 3 6 29.81 1009 10 16 0.03 0.76
5:15 pm 17:15 Cloudy with Rain 66 19.1 63 17.2 89 89 Calm 29.80 1009 7 11 0.02 0.51
5:35 pm 17:35 Cloudy with Light Rain 66 19 64 17.7 92 92 NE 3 6 29.78 1008 10 16 0.02 0.51
5:55 pm 17:55 Cloudy with Light Rain 66 18.9 64 17.6 92 92 Calm 29.78 1008 10 16 0.03 0.76
6:15 pm 18:15 Cloudy with Light Rain 66 18.9 65 18.1 95 95 Calm 29.78 1008 10 16 0.00 0.00
6:35 pm 18:35 Cloudy with Light Rain 65 18.6 65 18.5 99 99 Calm 29.78 1008 10 16 0.01 0.25
6:55 pm 18:55 Cloudy with Rain 65 18.4 65 18.2 99 99 Calm 29.78 1008 5 8 0.03 0.76
7:15 pm 19:15 Cloudy with Rain 64 17.7 64 17.6 99 99 WSW 3 6 29.78 1008 4 6 0.04 1.02
7:35 pm 19:35 Cloudy with Light Rain 63 17 63 17 100 100 Calm 29.78 1009 4 6 0.07 1.78
7:55 pm 19:55 Cloudy with Light Rain 63 17 63 17 100 100 WNW 3 6 29.77 1008 4 6 0.08 2.03
8:15 pm 20:15 Cloudy with Light Rain 63 17 N/A N/A Calm 29.77 1008 4 6 0.00 0.00
8:35 pm 20:35 Cloudy 63 17 N/A N/A Calm 29.76 1008 7 11 0.00 0.00
8:55 pm 20:55 Cloudy 63 17 N/A N/A Calm 29.76 1008 7 11 0.00 0.00
9:15 pm 21:15 Cloudy 63 17 N/A N/A Calm 29.76 1008 10 16 0.00 0.00
9:35 pm 21:35 Cloudy with Haze 63 17 N/A N/A Calm 29.76 1008 5 8 0.00 0.00
9:55 pm 21:55 Cloudy 63 17 N/A N/A Calm 29.76 1008 7 11 0.00 0.00
10:15 pm 22:15 Cloudy with Haze 63 17 N/A N/A WSW 5 7 29.77 1008 5 8 0.00 0.00
10:35 pm 22:35 Cloudy with Haze 63 17 N/A N/A WSW 5 7 29.78 1009 5 8 0.00 0.00
10:55 pm 22:55 Cloudy with Haze 63 17 N/A N/A W 5 7 29.78 1009 5 8 0.00 0.00
11:15 pm 23:15 Cloudy with Haze 63 17 N/A N/A WSW 3 6 29.79 1009 7 11 0.00 0.00
11:35 pm 23:35 Cloudy with Haze 63 17 N/A N/A Calm 29.79 1009 7 11 0.00 0.00
11:55 pm 23:55 Cloudy with Haze 63 17 N/A N/A Calm 29.79 1009 7 11 0.00 0.00

Powered by AerisWeather